Time,TemperatureF,DewpointF,PressureIn,WindDirection,WindDirectionDegrees,WindSpeedMPH,WindSpeedGustMPH,Humidity,HourlyPrecipIn,Conditions,Clouds,dailyrainin,SoftwareType,DateUTC
2013-01-27 00:03:00,29.7,37.6,29.81,ESE,103,4.0,5.0,33,0.00,,,0.00,meteohub,2013-01-27 06:03:00,
2013-01-27 00:08:00,29.5,37.0,29.81,ENE,62,0.0,6.0,32,0.00,,,0.00,meteohub,2013-01-27 06:08:00,
2013-01-27 00:13:00,29.5,37.4,29.81,SE,126,8.0,8.0,32,0.00,,,0.00,meteohub,2013-01-27 06:13:00,
2013-01-27 00:18:00,29.5,37.2,29.81,ESE,121,3.0,8.0,32,0.00,,,0.00,meteohub,2013-01-27 06:18:00,
2013-01-27 00:23:00,29.5,37.0,29.81,West,270,0.0,8.0,32,0.00,,,0.00,meteohub,2013-01-27 06:23:00,
2013-01-27 00:28:00,29.5,37.6,29.81,ESE,122,0.0,8.0,33,0.00,,,0.00,meteohub,2013-01-27 06:28:00,
2013-01-27 00:33:00,29.5,37.6,29.81,East,100,2.0,5.0,33,0.00,,,0.00,meteohub,2013-01-27 06:33:00,
2013-01-27 00:38:00,29.5,37.4,29.81,ESE,118,0.0,5.0,33,0.00,,,0.00,meteohub,2013-01-27 06:38:00,
2013-01-27 00:43:00,29.5,37.2,29.78,ESE,120,3.0,6.0,33,0.00,,,0.00,meteohub,2013-01-27 06:43:00,
2013-01-27 00:48:00,29.5,37.0,29.78,SE,135,3.0,6.0,33,0.00,,,0.00,meteohub,2013-01-27 06:48:00,
2013-01-27 00:53:00,29.5,36.9,29.78,ESE,110,6.0,6.0,33,0.00,,,0.00,meteohub,2013-01-27 06:53:00,
2013-01-27 00:58:00,29.5,36.7,29.78,East,84,3.0,6.0,33,0.00,,,0.00,meteohub,2013-01-27 06:58:00,
2013-01-27 01:03:00,29.3,36.7,29.78,ESE,114,0.0,6.0,33,0.00,,,0.00,meteohub,2013-01-27 07:03:00,
2013-01-27 01:08:00,29.3,36.5,29.78,SE,130,4.0,6.0,33,0.00,,,0.00,meteohub,2013-01-27 07:08:00,
2013-01-27 01:13:00,29.5,36.5,29.78,East,82,3.0,6.0,33,0.00,,,0.00,meteohub,2013-01-27 07:13:00,
2013-01-27 01:18:00,29.5,36.3,29.78,SSW,208,0.0,6.0,33,0.00,,,0.00,meteohub,2013-01-27 07:18:00,
2013-01-27 01:23:00,29.5,36.3,29.78,ESE,106,0.0,6.0,33,0.00,,,0.00,meteohub,2013-01-27 07:23:00,
2013-01-27 01:29:00,29.3,36.1,29.78,SW,227,0.0,5.0,33,0.00,,,0.00,meteohub,2013-01-27 07:29:00,
2013-01-27 01:34:00,29.3,36.1,29.78,SSW,203,0.0,5.0,33,0.00,,,0.00,meteohub,2013-01-27 07:34:00,
2013-01-27 01:39:00,29.1,36.0,29.78,ESE,110,2.0,5.0,33,0.00,,,0.00,meteohub,2013-01-27 07:39:00,
2013-01-27 01:44:00,29.1,35.8,29.78,ESE,103,0.0,5.0,33,0.00,,,0.00,meteohub,2013-01-27 07:44:00,
2013-01-27 01:49:00,28.9,35.8,29.78,ESE,115,3.0,4.0,33,0.00,,,0.00,meteohub,2013-01-27 07:49:00,
2013-01-27 01:54:00,28.9,35.6,29.78,ESE,109,0.0,4.0,33,0.00,,,0.00,meteohub,2013-01-27 07:54:00,
2013-01-27 01:59:00,28.8,35.4,29.78,ESE,117,0.0,4.0,33,0.00,,,0.00,meteohub,2013-01-27 07:59:00,
2013-01-27 02:04:00,28.8,35.2,29.78,ESE,120,0.0,4.0,33,0.00,,,0.00,meteohub,2013-01-27 08:04:00,
2013-01-27 02:09:00,28.9,35.2,29.78,SSE,153,0.0,4.0,33,0.00,,,0.00,meteohub,2013-01-27 08:09:00,
2013-01-27 02:14:00,28.9,35.1,29.78,ESE,122,4.0,4.0,33,0.00,,,0.00,meteohub,2013-01-27 08:14:00,
2013-01-27 02:19:00,28.9,35.1,29.78,ESE,114,0.0,4.0,33,0.00,,,0.00,meteohub,2013-01-27 08:19:00,
2013-01-27 02:24:00,28.9,35.1,29.78,ESE,112,2.0,4.0,33,0.00,,,0.00,meteohub,2013-01-27 08:24:00,
2013-01-27 02:29:00,28.9,34.9,29.78,ESE,107,0.0,5.0,33,0.00,,,0.00,meteohub,2013-01-27 08:29:00,
2013-01-27 02:34:00,28.9,34.9,29.78,SE,133,3.0,5.0,33,0.00,,,0.00,meteohub,2013-01-27 08:34:00,
2013-01-27 02:39:00,29.1,34.7,29.78,East,98,2.0,5.0,33,0.00,,,0.00,meteohub,2013-01-27 08:39:00,
2013-01-27 02:45:00,29.3,34.5,29.78,ESE,103,0.0,6.0,33,0.00,,,0.00,meteohub,2013-01-27 08:45:00,
2013-01-27 02:50:00,29.5,34.5,29.78,SW,236,5.0,6.0,33,0.00,,,0.00,meteohub,2013-01-27 08:50:00,
2013-01-27 02:55:00,29.5,34.3,29.78,South,186,3.0,6.0,33,0.00,,,0.00,meteohub,2013-01-27 08:55:00,
2013-01-27 03:00:00,29.7,34.3,29.78,SSW,195,3.0,6.0,33,0.00,,,0.00,meteohub,2013-01-27 09:00:00,
2013-01-27 03:05:00,29.8,34.2,29.78,SSW,197,3.0,6.0,33,0.00,,,0.00,meteohub,2013-01-27 09:05:00,
2013-01-27 03:10:00,29.8,34.2,29.78,ESE,112,3.0,5.0,33,0.00,,,0.00,meteohub,2013-01-27 09:10:00,
2013-01-27 03:15:00,29.8,34.0,29.78,ESE,110,0.0,5.0,33,0.00,,,0.00,meteohub,2013-01-27 09:15:00,
2013-01-27 03:20:00,29.8,33.8,29.78,East,97,0.0,6.0,33,0.00,,,0.00,meteohub,2013-01-27 09:20:00,
2013-01-27 03:25:00,29.8,33.8,29.78,East,87,4.0,6.0,33,0.00,,,0.00,meteohub,2013-01-27 09:25:00,
2013-01-27 03:30:00,29.8,33.8,29.78,ESE,104,0.0,6.0,33,0.00,,,0.00,meteohub,2013-01-27 09:30:00,
2013-01-27 03:35:00,29.8,33.8,29.78,SE,126,8.0,8.0,33,0.00,,,0.00,meteohub,2013-01-27 09:35:00,
2013-01-27 03:40:00,29.8,33.6,29.78,SE,135,6.0,8.0,33,0.00,,,0.00,meteohub,2013-01-27 09:40:00,
2013-01-27 03:45:00,30.0,33.6,29.78,SE,128,5.0,8.0,33,0.00,,,0.00,meteohub,2013-01-27 09:45:00,
2013-01-27 03:50:00,30.0,33.4,29.78,ESE,111,2.0,8.0,33,0.00,,,0.00,meteohub,2013-01-27 09:50:00,
2013-01-27 03:55:00,30.0,33.4,29.78,East,101,6.0,6.0,33,0.00,,,0.00,meteohub,2013-01-27 09:55:00,
2013-01-27 04:00:00,30.2,33.3,29.75,ENE,66,3.0,7.0,33,0.00,,,0.00,meteohub,2013-01-27 10:00:00,
2013-01-27 04:05:00,30.4,33.3,29.75,ESE,116,3.0,7.0,33,0.00,,,0.00,meteohub,2013-01-27 10:05:00,
2013-01-27 04:10:00,30.4,33.1,29.75,SE,124,5.0,7.0,33,0.00,,,0.00,meteohub,2013-01-27 10:10:00,
2013-01-27 04:16:00,30.6,33.1,29.75,NE,39,0.0,6.0,33,0.00,,,0.00,meteohub,2013-01-27 10:16:00,
2013-01-27 04:21:00,30.7,33.1,29.75,SSE,165,2.0,6.0,33,0.00,,,0.00,meteohub,2013-01-27 10:21:00,
2013-01-27 04:26:00,30.7,32.9,29.75,ESE,105,4.0,6.0,33,0.00,,,0.00,meteohub,2013-01-27 10:26:00,
2013-01-27 04:31:00,30.9,32.9,29.75,SE,124,4.0,6.0,33,0.00,,,0.00,meteohub,2013-01-27 10:31:00,
2013-01-27 04:36:00,31.1,32.7,29.75,East,84,4.0,7.0,33,0.00,,,0.00,meteohub,2013-01-27 10:36:00,
2013-01-27 04:41:00,31.1,32.7,29.75,East,91,3.0,7.0,33,0.00,,,0.00,meteohub,2013-01-27 10:41:00,
2013-01-27 04:46:00,31.1,32.5,29.75,ESE,104,5.0,6.0,33,0.00,,,0.00,meteohub,2013-01-27 10:46:00,
2013-01-27 04:51:00,31.1,32.5,29.75,ENE,74,3.0,8.0,33,0.00,,,0.00,meteohub,2013-01-27 10:51:00,
2013-01-27 04:56:00,31.1,32.5,29.72,East,94,3.0,8.0,33,0.00,,,0.00,meteohub,2013-01-27 10:56:00,
2013-01-27 05:01:00,31.1,32.5,29.72,SE,124,3.0,9.0,33,0.00,,,0.00,meteohub,2013-01-27 11:01:00,
2013-01-27 05:06:00,31.3,32.5,29.72,SW,219,2.0,9.0,33,0.00,,,0.00,meteohub,2013-01-27 11:06:00,
2013-01-27 05:11:00,31.3,32.4,29.75,ESE,105,0.0,6.0,33,0.00,,,0.00,meteohub,2013-01-27 11:11:00,
2013-01-27 05:16:00,31.3,32.4,29.75,SW,221,3.0,5.0,33,0.00,,,0.00,meteohub,2013-01-27 11:16:00,
2013-01-27 05:21:00,31.3,32.4,29.75,SSE,149,0.0,5.0,33,0.00,,,0.00,meteohub,2013-01-27 11:21:00,
2013-01-27 05:26:00,31.3,32.2,29.75,SE,133,3.0,5.0,33,0.00,,,0.00,meteohub,2013-01-27 11:26:00,
2013-01-27 05:32:00,31.3,32.2,29.75,East,95,6.0,6.0,33,0.00,,,0.00,meteohub,2013-01-27 11:32:00,
2013-01-27 05:37:00,31.1,32.0,29.75,ENE,78,3.0,6.0,33,0.00,,,0.00,meteohub,2013-01-27 11:37:00,
2013-01-27 05:42:00,31.1,32.0,29.75,ESE,116,0.0,6.0,33,0.00,,,0.00,meteohub,2013-01-27 11:42:00,
2013-01-27 05:47:00,31.1,32.0,29.75,East,100,3.0,6.0,33,0.00,,,0.00,meteohub,2013-01-27 11:47:00,
2013-01-27 05:52:00,31.1,32.0,29.75,East,101,5.0,6.0,33,0.00,,,0.00,meteohub,2013-01-27 11:52:00,
2013-01-27 05:57:00,31.1,31.8,29.75,SW,216,4.0,5.0,33,0.00,,,0.00,meteohub,2013-01-27 11:57:00,
2013-01-27 06:02:00,31.1,31.1,29.75,ESE,120,4.0,5.0,32,0.00,,,0.00,meteohub,2013-01-27 12:02:00,
2013-01-27 06:07:00,31.1,30.9,29.75,SE,129,6.0,6.0,32,0.00,,,0.00,meteohub,2013-01-27 12:07:00,
2013-01-27 06:12:00,31.1,30.9,29.75,ENE,69,5.0,6.0,32,0.00,,,0.00,meteohub,2013-01-27 12:12:00,
2013-01-27 06:17:00,31.1,30.9,29.75,ESE,110,6.0,8.0,32,0.00,,,0.00,meteohub,2013-01-27 12:17:00,
2013-01-27 06:22:00,31.1,30.9,29.75,East,94,4.0,8.0,32,0.00,,,0.00,meteohub,2013-01-27 12:22:00,
2013-01-27 06:27:00,31.1,30.7,29.75,East,101,3.0,8.0,32,0.00,,,0.00,meteohub,2013-01-27 12:27:00,
2013-01-27 06:33:00,31.3,30.7,29.75,ESE,114,4.0,8.0,32,0.00,,,0.00,meteohub,2013-01-27 12:33:00,
2013-01-27 06:38:00,31.3,31.3,29.75,East,85,5.0,8.0,33,0.00,,,0.00,meteohub,2013-01-27 12:38:00,
2013-01-27 06:43:00,31.3,31.3,29.75,ESE,106,4.0,8.0,33,0.00,,,0.00,meteohub,2013-01-27 12:43:00,
2013-01-27 06:48:00,31.5,31.3,29.75,NE,48,4.0,8.0,33,0.00,,,0.00,meteohub,2013-01-27 12:48:00,
2013-01-27 06:53:00,31.5,31.3,29.75,SE,127,3.0,8.0,33,0.00,,,0.00,meteohub,2013-01-27 12:53:00,
2013-01-27 06:58:00,31.5,31.3,29.72,SE,129,6.0,8.0,33,0.00,,,0.00,meteohub,2013-01-27 12:58:00,
2013-01-27 07:03:00,31.6,31.3,29.72,East,96,6.0,6.0,33,0.00,,,0.00,meteohub,2013-01-27 13:03:00,
2013-01-27 07:08:00,31.6,31.3,29.72,East,93,8.0,8.0,33,0.00,,,0.00,meteohub,2013-01-27 13:08:00,
2013-01-27 07:13:00,31.6,31.1,29.72,SE,124,6.0,7.0,33,0.00,,,0.00,meteohub,2013-01-27 13:13:00,
2013-01-27 07:18:00,31.8,31.5,29.72,ESE,109,4.0,13.0,33,0.00,,,0.00,meteohub,2013-01-27 13:18:00,
2013-01-27 07:23:00,32.0,33.1,29.72,East,92,15.0,15.0,34,0.00,,,0.00,meteohub,2013-01-27 13:23:00,
2013-01-27 07:29:00,32.2,33.4,29.72,ENE,64,5.0,11.0,33,0.00,,,0.00,meteohub,2013-01-27 13:29:00,
2013-01-27 07:34:00,32.4,35.2,29.72,ESE,120,3.0,15.0,34,0.00,,,0.00,meteohub,2013-01-27 13:34:00,
2013-01-27 07:39:00,32.5,35.4,29.72,ESE,104,2.0,15.0,33,0.00,,,0.00,meteohub,2013-01-27 13:39:00,
2013-01-27 07:44:00,32.7,36.3,29.72,ESE,109,3.0,12.0,33,0.00,,,0.00,meteohub,2013-01-27 13:44:00,
2013-01-27 07:49:00,32.9,36.9,29.72,ESE,119,4.0,12.0,33,0.00,,,0.00,meteohub,2013-01-27 13:49:00,
2013-01-27 07:54:00,33.1,37.4,29.72,West,281,5.0,8.0,33,0.00,,,0.00,meteohub,2013-01-27 13:54:00,
2013-01-27 07:59:00,33.1,37.0,29.72,ESE,111,6.0,13.0,33,0.00,,,0.00,meteohub,2013-01-27 13:59:00,
2013-01-27 08:04:00,33.1,36.9,29.72,ESE,108,5.0,13.0,33,0.00,,,0.00,meteohub,2013-01-27 14:04:00,
2013-01-27 08:09:00,32.9,37.2,29.72,SE,126,8.0,13.0,33,0.00,,,0.00,meteohub,2013-01-27 14:09:00,
2013-01-27 08:14:00,32.7,37.6,29.72,South,177,4.0,8.0,33,0.00,,,0.00,meteohub,2013-01-27 14:14:00,
2013-01-27 08:20:00,32.7,37.2,29.72,SE,129,6.0,8.0,33,0.00,,,0.00,meteohub,2013-01-27 14:20:00,
2013-01-27 08:25:00,32.7,37.0,29.72,ESE,118,3.0,8.0,33,0.00,,,0.00,meteohub,2013-01-27 14:25:00,
2013-01-27 08:30:00,32.9,37.4,29.72,East,101,5.0,8.0,33,0.00,,,0.00,meteohub,2013-01-27 14:30:00,
2013-01-27 08:35:00,33.1,37.0,29.72,ESE,113,5.0,10.0,33,0.00,,,0.00,meteohub,2013-01-27 14:35:00,
2013-01-27 08:40:00,33.1,36.9,29.72,ENE,69,5.0,10.0,33,0.00,,,0.00,meteohub,2013-01-27 14:40:00,
2013-01-27 08:45:00,33.3,37.0,29.72,ESE,112,6.0,8.0,33,0.00,,,0.00,meteohub,2013-01-27 14:45:00,
2013-01-27 08:50:00,33.4,37.2,29.72,East,94,3.0,6.0,33,0.00,,,0.00,meteohub,2013-01-27 14:50:00,
2013-01-27 08:55:00,33.4,37.0,29.72,ESE,118,6.0,8.0,33,0.00,,,0.00,meteohub,2013-01-27 14:55:00,
2013-01-27 09:00:00,33.6,36.9,29.72,East,90,5.0,11.0,33,0.00,,,0.00,meteohub,2013-01-27 15:00:00,
2013-01-27 09:06:00,33.6,37.2,29.72,East,95,4.0,11.0,33,0.00,,,0.00,meteohub,2013-01-27 15:06:00,
2013-01-27 09:11:00,33.8,37.9,29.72,ESE,113,6.0,11.0,33,0.00,,,0.00,meteohub,2013-01-27 15:11:00,
2013-01-27 09:16:00,33.8,38.1,29.72,East,91,3.0,11.0,33,0.00,,,0.00,meteohub,2013-01-27 15:16:00,
2013-01-27 09:21:00,33.8,37.9,29.72,ESE,123,4.0,11.0,33,0.00,,,0.00,meteohub,2013-01-27 15:21:00,
2013-01-27 09:26:00,33.8,37.8,29.72,ESE,113,10.0,10.0,33,0.00,,,0.00,meteohub,2013-01-27 15:26:00,
2013-01-27 09:31:00,33.8,37.9,29.72,ENE,77,5.0,10.0,33,0.00,,,0.00,meteohub,2013-01-27 15:31:00,
2013-01-27 09:36:00,33.8,37.6,29.72,SE,124,6.0,11.0,33,0.00,,,0.00,meteohub,2013-01-27 15:36:00,
2013-01-27 09:41:00,33.8,37.8,29.72,SSW,201,4.0,11.0,33,0.00,,,0.00,meteohub,2013-01-27 15:41:00,
2013-01-27 09:46:00,33.8,37.8,29.72,SE,124,4.0,11.0,33,0.04,,,0.00,meteohub,2013-01-27 15:46:00,
2013-01-27 09:51:00,33.8,37.8,29.72,ESE,108,0.0,8.0,33,0.04,,,0.04,meteohub,2013-01-27 15:51:00,
2013-01-27 09:56:00,33.8,37.9,29.72,SE,139,4.0,7.0,33,0.04,,,0.04,meteohub,2013-01-27 15:56:00,
2013-01-27 10:02:00,33.8,37.8,29.72,ESE,108,6.0,7.0,33,0.04,,,0.04,meteohub,2013-01-27 16:02:00,
2013-01-27 10:07:00,33.8,37.6,29.72,SSW,199,3.0,10.0,33,0.04,,,0.04,meteohub,2013-01-27 16:07:00,
2013-01-27 10:12:00,33.8,37.6,29.72,ESE,120,4.0,10.0,33,0.04,,,0.04,meteohub,2013-01-27 16:12:00,
2013-01-27 10:17:00,33.8,37.9,29.72,ESE,107,0.0,8.0,33,0.04,,,0.04,meteohub,2013-01-27 16:17:00,
2013-01-27 10:22:00,33.8,37.8,29.72,ESE,113,5.0,8.0,33,0.04,,,0.04,meteohub,2013-01-27 16:22:00,
2013-01-27 10:27:00,34.0,37.6,29.69,ESE,123,6.0,8.0,33,0.04,,,0.04,meteohub,2013-01-27 16:27:00,
2013-01-27 10:32:00,34.0,37.4,29.69,East,98,3.0,8.0,33,0.04,,,0.04,meteohub,2013-01-27 16:32:00,
2013-01-27 10:37:00,34.0,37.6,29.69,East,93,4.0,7.0,33,0.04,,,0.04,meteohub,2013-01-27 16:37:00,
2013-01-27 10:42:00,34.0,37.8,29.69,East,82,3.0,10.0,33,0.04,,,0.04,meteohub,2013-01-27 16:42:00,
2013-01-27 10:47:00,34.2,37.6,29.69,ESE,107,3.0,10.0,33,0.00,,,0.04,meteohub,2013-01-27 16:47:00,
2013-01-27 10:52:00,34.2,37.4,29.69,SE,138,6.0,10.0,33,0.00,,,0.04,meteohub,2013-01-27 16:52:00,
2013-01-27 10:57:00,34.3,37.2,29.69,SE,132,8.0,9.0,33,0.00,,,0.04,meteohub,2013-01-27 16:57:00,
2013-01-27 11:03:00,34.3,37.6,29.69,SSE,156,4.0,9.0,33,0.00,,,0.04,meteohub,2013-01-27 17:03:00,
2013-01-27 11:08:00,34.3,37.6,29.69,ESE,103,4.0,11.0,33,0.00,,,0.04,meteohub,2013-01-27 17:08:00,
2013-01-27 11:13:00,34.3,37.4,29.66,ESE,108,3.0,11.0,33,0.00,,,0.04,meteohub,2013-01-27 17:13:00,
2013-01-27 11:18:00,34.3,37.2,29.66,NE,52,2.0,9.0,33,0.00,,,0.04,meteohub,2013-01-27 17:18:00,
2013-01-27 11:23:00,34.5,37.0,29.66,SSW,197,4.0,9.0,33,0.00,,,0.04,meteohub,2013-01-27 17:23:00,
2013-01-27 11:28:00,34.5,37.0,29.66,SE,132,6.0,9.0,33,0.00,,,0.04,meteohub,2013-01-27 17:28:00,
2013-01-27 11:33:00,34.5,37.4,29.66,ESE,118,4.0,8.0,33,0.00,,,0.04,meteohub,2013-01-27 17:33:00,
2013-01-27 11:38:00,34.7,37.4,29.66,ESE,114,3.0,8.0,33,0.00,,,0.04,meteohub,2013-01-27 17:38:00,
2013-01-27 11:43:00,34.9,37.2,29.66,ENE,72,3.0,9.0,33,0.00,,,0.04,meteohub,2013-01-27 17:43:00,
2013-01-27 11:48:00,34.9,37.0,29.66,ESE,102,5.0,9.0,33,0.00,,,0.04,meteohub,2013-01-27 17:48:00,
2013-01-27 11:53:00,34.9,36.9,29.66,SE,128,8.0,10.0,33,0.00,,,0.04,meteohub,2013-01-27 17:53:00,
2013-01-27 11:59:00,34.9,37.0,29.63,East,86,3.0,10.0,33,0.00,,,0.04,meteohub,2013-01-27 17:59:00,
2013-01-27 12:04:00,35.1,36.9,29.63,South,182,4.0,10.0,33,0.00,,,0.04,meteohub,2013-01-27 18:04:00,
2013-01-27 12:09:00,35.1,36.7,29.63,ESE,123,3.0,9.0,33,0.00,,,0.04,meteohub,2013-01-27 18:09:00,
2013-01-27 12:14:00,35.2,37.4,29.63,East,87,6.0,8.0,33,0.00,,,0.04,meteohub,2013-01-27 18:14:00,
2013-01-27 12:19:00,35.2,38.1,29.63,SE,127,5.0,7.0,33,0.00,,,0.04,meteohub,2013-01-27 18:19:00,
2013-01-27 12:24:00,35.4,38.5,29.63,ENE,63,4.0,8.0,33,0.00,,,0.04,meteohub,2013-01-27 18:24:00,
2013-01-27 12:29:00,35.6,38.3,29.60,ESE,110,8.0,8.0,33,0.00,,,0.04,meteohub,2013-01-27 18:29:00,
2013-01-27 12:34:00,35.6,38.8,29.60,ENE,70,8.0,11.0,33,0.00,,,0.04,meteohub,2013-01-27 18:34:00,
2013-01-27 12:39:00,35.8,38.8,29.60,East,94,8.0,11.0,33,0.00,,,0.04,meteohub,2013-01-27 18:39:00,
2013-01-27 12:44:00,36.1,38.7,29.57,ENE,66,5.0,11.0,33,0.00,,,0.04,meteohub,2013-01-27 18:44:00,
2013-01-27 12:50:00,36.3,38.8,29.57,SSE,166,4.0,10.0,33,0.00,,,0.04,meteohub,2013-01-27 18:50:00,
2013-01-27 12:55:00,36.5,38.8,29.57,South,170,4.0,11.0,33,0.00,,,0.04,meteohub,2013-01-27 18:55:00,
2013-01-27 13:00:00,36.7,38.7,29.57,ESE,117,4.0,11.0,33,0.00,,,0.04,meteohub,2013-01-27 19:00:00,
2013-01-27 13:05:00,36.9,38.8,29.57,ENE,72,4.0,8.0,33,0.00,,,0.04,meteohub,2013-01-27 19:05:00,
2013-01-27 13:10:00,37.0,38.8,29.57,East,83,3.0,7.0,33,0.00,,,0.04,meteohub,2013-01-27 19:10:00,
2013-01-27 13:15:00,37.2,38.7,29.57,South,175,3.0,7.0,33,0.00,,,0.04,meteohub,2013-01-27 19:15:00,
2013-01-27 13:20:00,37.4,38.8,29.57,SW,225,4.0,7.0,33,0.00,,,0.04,meteohub,2013-01-27 19:20:00,
2013-01-27 13:26:00,37.6,38.8,29.57,SSE,150,2.0,7.0,33,0.00,,,0.04,meteohub,2013-01-27 19:26:00,
2013-01-27 13:31:00,37.6,38.8,29.57,SE,140,5.0,7.0,33,0.00,,,0.04,meteohub,2013-01-27 19:31:00,
2013-01-27 13:36:00,37.9,39.0,29.57,East,89,3.0,10.0,33,0.00,,,0.04,meteohub,2013-01-27 19:36:00,
2013-01-27 13:41:00,37.9,39.0,29.57,South,190,4.0,10.0,33,0.00,,,0.04,meteohub,2013-01-27 19:41:00,
2013-01-27 13:46:00,38.1,38.8,29.57,West,268,5.0,10.0,33,0.00,,,0.04,meteohub,2013-01-27 19:46:00,
2013-01-27 13:51:00,38.1,39.0,29.57,South,169,4.0,8.0,33,0.00,,,0.04,meteohub,2013-01-27 19:51:00,
2013-01-27 13:56:00,38.1,39.0,29.57,East,92,6.0,8.0,33,0.00,,,0.04,meteohub,2013-01-27 19:56:00,
2013-01-27 14:01:00,38.3,38.1,29.57,East,90,6.0,8.0,32,0.00,,,0.04,meteohub,2013-01-27 20:01:00,
2013-01-27 14:06:00,38.5,38.3,29.57,ESE,115,3.0,8.0,32,0.00,,,0.04,meteohub,2013-01-27 20:06:00,
2013-01-27 14:11:00,38.7,38.3,29.54,East,94,2.0,8.0,32,0.00,,,0.04,meteohub,2013-01-27 20:11:00,
2013-01-27 14:16:00,38.8,38.1,29.54,East,85,3.0,10.0,32,0.00,,,0.04,meteohub,2013-01-27 20:16:00,
2013-01-27 14:22:00,38.8,38.1,29.54,SE,132,3.0,10.0,32,0.00,,,0.04,meteohub,2013-01-27 20:22:00,
2013-01-27 14:27:00,39.0,38.5,29.54,East,100,0.0,10.0,32,0.00,,,0.04,meteohub,2013-01-27 20:27:00,
2013-01-27 14:32:00,39.2,38.3,29.54,ENE,74,3.0,7.0,32,0.00,,,0.04,meteohub,2013-01-27 20:32:00,
2013-01-27 14:37:00,39.2,38.1,29.54,East,83,4.0,7.0,32,0.00,,,0.04,meteohub,2013-01-27 20:37:00,
2013-01-27 14:42:00,39.2,38.1,29.54,ENE,60,0.0,7.0,32,0.00,,,0.04,meteohub,2013-01-27 20:42:00,
2013-01-27 14:47:00,39.4,38.5,29.54,SSW,192,0.0,6.0,32,0.00,,,0.04,meteohub,2013-01-27 20:47:00,
2013-01-27 14:52:00,39.4,38.3,29.54,South,176,4.0,8.0,32,0.00,,,0.04,meteohub,2013-01-27 20:52:00,
2013-01-27 14:57:00,39.6,38.1,29.54,South,187,4.0,8.0,32,0.00,,,0.04,meteohub,2013-01-27 20:57:00,
2013-01-27 15:02:00,39.6,38.1,29.54,WSW,248,3.0,8.0,32,0.00,,,0.04,meteohub,2013-01-27 21:02:00,
2013-01-27 15:07:00,39.7,38.3,29.54,ESE,123,5.0,8.0,32,0.00,,,0.04,meteohub,2013-01-27 21:07:00,
2013-01-27 15:12:00,39.7,38.1,29.54,SE,140,3.0,8.0,32,0.00,,,0.04,meteohub,2013-01-27 21:12:00,
2013-01-27 15:17:00,39.9,38.1,29.54,SSW,205,4.0,8.0,32,0.00,,,0.04,meteohub,2013-01-27 21:17:00,
2013-01-27 15:23:00,39.9,37.9,29.54,East,93,4.0,9.0,32,0.00,,,0.04,meteohub,2013-01-27 21:23:00,
2013-01-27 15:28:00,40.3,38.3,29.51,SE,135,5.0,9.0,32,0.00,,,0.04,meteohub,2013-01-27 21:28:00,
2013-01-27 15:33:00,40.5,38.1,29.51,SSW,207,3.0,9.0,32,0.00,,,0.04,meteohub,2013-01-27 21:33:00,
2013-01-27 15:38:00,40.6,37.9,29.51,SW,224,3.0,9.0,32,0.00,,,0.04,meteohub,2013-01-27 21:38:00,
2013-01-27 15:43:00,40.8,37.8,29.51,SSW,207,6.0,7.0,32,0.00,,,0.04,meteohub,2013-01-27 21:43:00,
2013-01-27 15:48:00,41.0,38.1,29.51,East,88,3.0,6.0,32,0.00,,,0.04,meteohub,2013-01-27 21:48:00,
2013-01-27 15:53:00,41.2,38.1,29.51,SSW,205,3.0,6.0,32,0.00,,,0.04,meteohub,2013-01-27 21:53:00,
2013-01-27 15:58:00,41.5,38.1,29.51,NNE,32,3.0,6.0,32,0.00,,,0.04,meteohub,2013-01-27 21:58:00,
2013-01-27 16:03:00,41.7,37.9,29.51,SSW,204,6.0,6.0,32,0.00,,,0.04,meteohub,2013-01-27 22:03:00,
2013-01-27 16:09:00,41.9,38.1,29.51,ESE,113,4.0,6.0,32,0.00,,,0.04,meteohub,2013-01-27 22:09:00,
2013-01-27 16:14:00,42.1,38.1,29.51,SW,226,4.0,6.0,32,0.00,,,0.04,meteohub,2013-01-27 22:14:00,
2013-01-27 16:19:00,42.3,37.9,29.51,SW,222,4.0,6.0,32,0.00,,,0.04,meteohub,2013-01-27 22:19:00,
2013-01-27 16:24:00,42.4,37.9,29.51,SSW,201,7.0,7.0,32,0.00,,,0.04,meteohub,2013-01-27 22:24:00,
2013-01-27 16:29:00,42.4,37.9,29.51,South,180,5.0,6.0,32,0.00,,,0.04,meteohub,2013-01-27 22:29:00,
2013-01-27 16:34:00,42.6,38.1,29.51,South,187,4.0,7.0,32,0.00,,,0.04,meteohub,2013-01-27 22:34:00,
2013-01-27 16:39:00,42.6,38.1,29.51,SSE,166,3.0,7.0,32,0.00,,,0.04,meteohub,2013-01-27 22:39:00,
2013-01-27 16:44:00,42.8,37.9,29.51,WSW,241,4.0,7.0,32,0.00,,,0.04,meteohub,2013-01-27 22:44:00,
2013-01-27 16:49:00,42.8,37.9,29.51,South,178,3.0,6.0,32,0.00,,,0.04,meteohub,2013-01-27 22:49:00,
2013-01-27 16:54:00,43.0,38.1,29.51,ESE,113,4.0,6.0,32,0.00,,,0.04,meteohub,2013-01-27 22:54:00,
2013-01-27 17:00:00,43.0,38.1,29.48,SE,128,6.0,6.0,32,0.00,,,0.04,meteohub,2013-01-27 23:00:00,
2013-01-27 17:05:00,43.0,38.1,29.48,ESE,119,6.0,10.0,32,0.00,,,0.04,meteohub,2013-01-27 23:05:00,
2013-01-27 17:10:00,43.2,37.9,29.48,SSW,199,3.0,10.0,32,0.00,,,0.04,meteohub,2013-01-27 23:10:00,
2013-01-27 17:15:00,43.2,38.3,29.48,NW,312,4.0,10.0,32,0.00,,,0.04,meteohub,2013-01-27 23:15:00,
2013-01-27 17:20:00,43.0,38.5,29.48,SE,138,5.0,10.0,32,0.00,,,0.04,meteohub,2013-01-27 23:20:00,
2013-01-27 17:25:00,43.0,38.5,29.48,East,90,3.0,10.0,32,0.00,,,0.04,meteohub,2013-01-27 23:25:00,
2013-01-27 17:30:00,42.8,38.3,29.48,SSW,207,3.0,9.0,32,0.00,,,0.04,meteohub,2013-01-27 23:30:00,
2013-01-27 17:35:00,43.0,38.7,29.48,South,191,6.0,9.0,32,0.04,,,0.08,meteohub,2013-01-27 23:35:00,
2013-01-27 17:41:00,43.2,38.7,29.48,SW,217,6.0,11.0,32,0.04,,,0.08,meteohub,2013-01-27 23:41:00,
2013-01-27 17:46:00,43.2,38.7,29.48,East,94,4.0,11.0,32,0.04,,,0.08,meteohub,2013-01-27 23:46:00,
2013-01-27 17:51:00,43.3,38.5,29.48,South,186,6.0,11.0,32,0.04,,,0.08,meteohub,2013-01-27 23:51:00,
2013-01-27 17:56:00,43.3,38.7,29.48,SW,229,5.0,11.0,32,0.04,,,0.08,meteohub,2013-01-27 23:56:00,
2013-01-27 18:01:00,43.3,38.8,29.45,South,184,9.0,11.0,32,0.04,,,0.08,meteohub,2013-01-28 00:01:00,
2013-01-27 18:06:00,43.3,38.8,29.45,South,190,5.0,10.0,32,0.04,,,0.08,meteohub,2013-01-28 00:06:00,
2013-01-27 18:11:00,43.3,38.7,29.45,ESE,115,3.0,10.0,32,0.04,,,0.08,meteohub,2013-01-28 00:11:00,
2013-01-27 18:17:00,43.3,38.8,29.48,SSW,198,5.0,10.0,32,0.04,,,0.08,meteohub,2013-01-28 00:17:00,
2013-01-27 18:22:00,43.5,39.0,29.48,ENE,60,3.0,10.0,32,0.04,,,0.08,meteohub,2013-01-28 00:22:00,
2013-01-27 18:27:00,43.5,38.8,29.48,ESE,108,3.0,10.0,32,0.04,,,0.08,meteohub,2013-01-28 00:27:00,
2013-01-27 18:32:00,43.5,38.8,29.48,SSW,204,6.0,8.0,32,0.04,,,0.08,meteohub,2013-01-28 00:32:00,
2013-01-27 18:37:00,43.7,38.7,29.48,SSW,199,5.0,8.0,32,0.00,,,0.08,meteohub,2013-01-28 00:37:00,
2013-01-27 18:42:00,43.7,38.7,29.48,SE,140,5.0,8.0,32,0.00,,,0.08,meteohub,2013-01-28 00:42:00,
2013-01-27 18:47:00,43.9,38.8,29.48,SSW,198,3.0,8.0,32,0.00,,,0.08,meteohub,2013-01-28 00:47:00,
2013-01-27 18:52:00,44.1,39.0,29.48,SSW,202,4.0,8.0,32,0.00,,,0.08,meteohub,2013-01-28 00:52:00,
2013-01-27 18:58:00,44.2,38.8,29.48,ESE,118,3.0,6.0,32,0.00,,,0.08,meteohub,2013-01-28 00:58:00,
2013-01-27 19:03:00,44.6,38.8,29.48,SSW,196,4.0,6.0,32,0.00,,,0.08,meteohub,2013-01-28 01:03:00,
2013-01-27 19:08:00,44.8,38.8,29.48,ESE,117,3.0,6.0,32,0.00,,,0.08,meteohub,2013-01-28 01:08:00,
2013-01-27 19:13:00,45.1,38.7,29.48,SSW,203,3.0,6.0,32,0.00,,,0.08,meteohub,2013-01-28 01:13:00,
2013-01-27 19:18:00,45.3,38.7,29.48,East,93,0.0,6.0,32,0.00,,,0.08,meteohub,2013-01-28 01:18:00,
2013-01-27 19:23:00,45.7,39.2,29.48,SW,218,3.0,6.0,33,0.00,,,0.08,meteohub,2013-01-28 01:23:00,
2013-01-27 19:29:00,45.9,39.2,29.48,SSW,202,4.0,6.0,33,0.00,,,0.08,meteohub,2013-01-28 01:29:00,
2013-01-27 19:34:00,46.2,39.0,29.48,SSE,167,3.0,6.0,33,0.00,,,0.08,meteohub,2013-01-28 01:34:00,
2013-01-27 19:39:00,46.4,39.0,29.48,SSW,201,5.0,6.0,33,0.00,,,0.08,meteohub,2013-01-28 01:39:00,
2013-01-27 19:44:00,46.6,38.7,29.48,SSW,202,4.0,6.0,32,0.00,,,0.08,meteohub,2013-01-28 01:44:00,
2013-01-27 19:49:00,46.8,38.7,29.48,SW,217,4.0,6.0,32,0.00,,,0.08,meteohub,2013-01-28 01:49:00,
2013-01-27 19:54:00,46.8,39.2,29.48,SSW,196,3.0,6.0,33,0.00,,,0.08,meteohub,2013-01-28 01:54:00,
2013-01-27 19:59:00,46.9,39.0,29.48,SSW,200,3.0,6.0,33,0.00,,,0.08,meteohub,2013-01-28 01:59:00,
2013-01-27 20:04:00,47.1,39.0,29.48,SW,215,4.0,6.0,33,0.00,,,0.08,meteohub,2013-01-28 02:04:00,
2013-01-27 20:09:00,47.3,38.8,29.48,SW,233,4.0,6.0,33,0.00,,,0.08,meteohub,2013-01-28 02:09:00,
2013-01-27 20:15:00,47.3,38.8,29.48,SW,215,4.0,5.0,33,0.00,,,0.08,meteohub,2013-01-28 02:15:00,
2013-01-27 20:20:00,47.5,38.8,29.48,SSW,192,0.0,5.0,33,0.00,,,0.08,meteohub,2013-01-28 02:20:00,
2013-01-27 20:25:00,47.7,38.8,29.48,ESE,111,5.0,6.0,33,0.00,,,0.08,meteohub,2013-01-28 02:25:00,
2013-01-27 20:30:00,47.8,38.7,29.48,SSW,200,4.0,5.0,33,0.00,,,0.08,meteohub,2013-01-28 02:30:00,
2013-01-27 20:35:00,47.8,38.7,29.48,WSW,253,3.0,6.0,33,0.00,,,0.08,meteohub,2013-01-28 02:35:00,
2013-01-27 20:40:00,47.8,38.8,29.48,SW,218,3.0,6.0,33,0.00,,,0.08,meteohub,2013-01-28 02:40:00,
2013-01-27 20:45:00,48.0,38.8,29.48,East,101,3.0,6.0,33,0.00,,,0.08,meteohub,2013-01-28 02:45:00,
2013-01-27 20:50:00,47.8,38.8,29.48,SW,219,2.0,4.0,33,0.00,,,0.08,meteohub,2013-01-28 02:50:00,
2013-01-27 20:55:00,47.8,38.8,29.48,NW,322,2.0,4.0,33,0.00,,,0.08,meteohub,2013-01-28 02:55:00,
2013-01-27 21:00:00,47.7,38.7,29.48,SSW,208,3.0,7.0,33,0.00,,,0.08,meteohub,2013-01-28 03:00:00,
2013-01-27 21:06:00,47.7,38.7,29.48,NE,39,0.0,7.0,33,0.00,,,0.08,meteohub,2013-01-28 03:06:00,
2013-01-27 21:11:00,47.5,38.5,29.48,SE,131,3.0,4.0,33,0.00,,,0.08,meteohub,2013-01-28 03:11:00,
2013-01-27 21:16:00,47.5,38.5,29.48,ESE,110,3.0,4.0,33,0.00,,,0.08,meteohub,2013-01-28 03:16:00,
2013-01-27 21:21:00,47.5,38.5,29.48,SSW,206,4.0,5.0,33,0.00,,,0.08,meteohub,2013-01-28 03:21:00,
2013-01-27 21:26:00,47.5,38.3,29.48,South,176,2.0,5.0,33,0.00,,,0.08,meteohub,2013-01-28 03:26:00,
2013-01-27 21:31:00,47.3,38.5,29.48,SSW,208,5.0,5.0,33,0.00,,,0.08,meteohub,2013-01-28 03:31:00,
2013-01-27 21:36:00,47.3,38.7,29.48,ESE,111,0.0,5.0,33,0.00,,,0.08,meteohub,2013-01-28 03:36:00,
2013-01-27 21:41:00,47.3,38.7,29.48,SSW,211,3.0,5.0,33,0.00,,,0.08,meteohub,2013-01-28 03:41:00,
2013-01-27 21:46:00,47.3,38.5,29.48,SSE,165,0.0,5.0,33,0.00,,,0.08,meteohub,2013-01-28 03:46:00,
2013-01-27 21:51:00,47.3,38.5,29.48,South,169,0.0,5.0,33,0.00,,,0.08,meteohub,2013-01-28 03:51:00,
2013-01-27 21:57:00,47.3,38.3,29.48,East,89,2.0,5.0,33,0.00,,,0.08,meteohub,2013-01-28 03:57:00,
2013-01-27 22:02:00,47.3,38.3,29.48,WSW,249,2.0,5.0,33,0.00,,,0.08,meteohub,2013-01-28 04:02:00,
2013-01-27 22:07:00,47.3,38.8,29.48,ENE,66,0.0,5.0,33,0.00,,,0.08,meteohub,2013-01-28 04:07:00,
2013-01-27 22:12:00,47.5,38.8,29.48,SSW,210,3.0,5.0,33,0.00,,,0.08,meteohub,2013-01-28 04:12:00,
2013-01-27 22:17:00,47.7,38.8,29.48,SSW,197,2.0,5.0,33,0.00,,,0.08,meteohub,2013-01-28 04:17:00,
2013-01-27 22:22:00,47.8,38.8,29.48,SW,226,2.0,5.0,33,0.00,,,0.08,meteohub,2013-01-28 04:22:00,
2013-01-27 22:27:00,48.2,38.7,29.48,SE,141,3.0,4.0,33,0.00,,,0.08,meteohub,2013-01-28 04:27:00,
2013-01-27 22:32:00,48.4,38.7,29.48,ESE,102,0.0,4.0,33,0.00,,,0.08,meteohub,2013-01-28 04:32:00,
2013-01-27 22:37:00,48.7,38.5,29.48,SSW,210,0.0,4.0,33,0.00,,,0.08,meteohub,2013-01-28 04:37:00,
2013-01-27 22:42:00,49.1,38.5,29.48,East,98,0.0,4.0,33,0.00,,,0.08,meteohub,2013-01-28 04:42:00,
2013-01-27 22:47:00,49.5,38.5,29.48,South,179,3.0,6.0,33,0.00,,,0.08,meteohub,2013-01-28 04:47:00,
2013-01-27 22:53:00,49.8,38.7,29.48,SSW,207,2.0,6.0,33,0.00,,,0.08,meteohub,2013-01-28 04:53:00,
2013-01-27 22:58:00,50.2,38.7,29.48,SSW,200,0.0,4.0,33,0.00,,,0.08,meteohub,2013-01-28 04:58:00,
2013-01-27 23:00:00,50.4,38.7,29.48,SSE,164,0.0,4.0,33,0.00,,,0.08,meteohub,2013-01-28 05:00:00,
2013-01-27 23:02:00,50.4,38.7,29.48,SSE,152,0.0,4.0,33,0.00,,,0.08,meteohub,2013-01-28 05:02:00,
2013-01-27 23:04:00,50.4,38.7,29.48,SE,135,0.0,4.0,33,0.00,,,0.08,meteohub,2013-01-28 05:04:00,
2013-01-27 23:09:00,50.9,38.5,29.48,ESE,112,0.0,4.0,33,0.00,,,0.08,meteohub,2013-01-28 05:09:00,
2013-01-27 23:14:00,51.1,38.3,29.48,ESE,119,0.0,5.0,33,0.00,,,0.08,meteohub,2013-01-28 05:14:00,
2013-01-27 23:19:00,51.3,38.3,29.48,WSW,247,0.0,5.0,33,0.00,,,0.08,meteohub,2013-01-28 05:19:00,
2013-01-27 23:25:00,51.6,38.7,29.48,ESE,106,2.0,5.0,33,0.00,,,0.08,meteohub,2013-01-28 05:25:00,
2013-01-27 23:30:00,51.6,38.8,29.48,SE,128,4.0,4.0,33,0.00,,,0.08,meteohub,2013-01-28 05:30:00,
2013-01-27 23:35:00,52.0,38.8,29.48,East,101,0.0,4.0,33,0.00,,,0.08,meteohub,2013-01-28 05:35:00,
2013-01-27 23:40:00,52.0,38.7,29.48,ESE,115,0.0,4.0,33,0.00,,,0.08,meteohub,2013-01-28 05:40:00,
2013-01-27 23:45:00,52.3,38.5,29.48,South,188,0.0,4.0,33,0.00,,,0.08,meteohub,2013-01-28 05:45:00,
2013-01-27 23:50:00,52.9,38.5,29.48,SSW,195,3.0,4.0,33,0.00,,,0.08,meteohub,2013-01-28 05:50:00,
2013-01-27 23:55:00,53.2,38.3,29.48,SSW,211,3.0,4.0,33,0.00,,,0.08,meteohub,2013-01-28 05:55:00,